User: anonymous
Location: McDonald Observatory
(30.6717°N, 104.0221°W)
Time: 10:26:37
(UTC-05:00)
Language:

Cosmos 1484 Rocket - Orbit

View from above orbital plane
View from above orbital plane
View from above satellite
View from above satellite

Ground track
Ground track

The orbit data is extracted from the following two-line orbital elements,

1 14208U 83075B   14106.42426944  .00002260  00000-0  15337-3 0  9964
2 14208 097.4307 145.4279 0044139 152.3592 207.9996 15.06608937672908
Epoch (UTC): 16 April 2014 10:10:56
Eccentricity: 0.0044139
inclination: 97.4307°
perigee height: 516 km
apogee height: 577 km
right ascension of ascending node: 145.4279°
argument of perigee: 152.3592°
revolutions per day: 15.06608937
mean anomaly at epoch: 207.9996°
orbit number at epoch: 67290

The dashed part of the orbit path shows where the satellite is in the earth's shadow,  

DLR